Location: Elk Forest
(39.5314°N, 75.8738°W)
Time: 00:53:54
(UTC-04:00)

Daily predictions for brighter satellites

Satellite Brightness Start Highest point End
(mag) Time Altitude Azimuth Time Altitude Azimuth Time Altitude Azimuth
Resurs 1-4 Rocket 4.4 03:17:39 10° NNE 03:19:15 19° NE 03:19:15 19° NE
Cosmos 2227 Rocket 4.1 03:25:43 25° NE 03:25:43 25° NE 03:28:13 10° NE
Cosmos 2297 Rocket 4.0 03:33:43 28° ENE 03:33:43 28° ENE 03:36:51 10° NE
Cosmos 2344 3.9 03:37:35 64° NNE 03:37:35 64° NNE 03:44:53 10° NNE
NOSS 3-4 (A) 4.5 03:39:28 43° NE 03:39:28 43° NE 03:43:41 10° NE
NOSS 3-4 (C) 4.5 03:39:33 43° NE 03:39:33 43° NE 03:43:47 10° NE
SL-16 R/B 4.4 04:10:05 18° NNW 04:10:05 18° NNW 04:11:37 10° NNW
Lacrosse 5 3.2 04:24:09 33° N 04:24:09 33° N 04:27:20 10° NNE
Okean O Rocket 2.6 04:25:16 10° NNE 04:28:30 44° NE 04:28:30 44° NE
ATLAS 5 CENTAUR R/B 3.7 04:33:20 28° SSE 04:33:20 28° SSE 04:36:19 10° SSE
Cosmos 2298 Rocket 4.5 04:30:00 54° SE 04:30:32 57° ESE 04:35:45 10° NNE
CZ-4B R/B 3.7 04:32:15 10° NNE 04:37:38 58° ESE 04:40:07 31° SSE
Lacrosse 5 rocket 4.2 04:41:17 10° NNW 04:41:17 10° NNW 04:41:52 10° N
OAO 2 Rocket 4.4 04:41:41 35° SSE 04:41:41 35° SSE 04:46:17 10° E
Cosmos 1892 Rocket 3.9 04:43:24 66° NE 04:43:24 66° NE 04:47:27 10° NNE
Cosmos 2150 Rocket 4.2 04:42:56 53° SSE 04:43:56 66° ESE 04:49:03 10° NNE
USA 215 3.2 04:37:57 10° SSE 04:44:25 62° SW 04:45:11 58° WSW
Meteor 1-19 Rocket 4.2 04:46:45 61° NW 04:46:45 61° NW 04:51:49 10° N
ADEOS Rocket 3.7 04:40:01 10° NNE 04:46:54 58° E 04:53:03 10° S
CZ-2D R/B 3.7 04:42:28 10° N 04:44:44 22° NNW 04:44:44 22° NNW
Cosmos 2100 Rocket 4.1 04:42:27 10° N 04:48:43 78° E 04:55:02 10° S
Meteor 2-4 Rocket 3.7 04:48:09 54° SSW 04:49:34 83° W 04:55:33 10° N
BREEZE-M DEB (TANK) 3.3 04:50:16 60° NNE 04:50:16 60° NNE 04:52:32 10° NE
Cosmos 2228 4.1 04:46:50 10° N 04:51:04 45° E 04:55:14 10° SSE
Cosmos 1802 Rocket 4.3 04:46:31 10° N 04:52:38 66° E 04:58:43 10° SSE
CENTAUR R/B 3.5 04:45:15 10° NNW 04:53:02 63° NE 05:01:16 10° SE
Cosmos 2061 Rocket 4.1 04:48:15 10° N 04:54:36 78° E 05:01:00 10° S
IRS-1C Rocket 3.9 04:52:10 10° N 04:57:27 73° WNW 04:58:22 59° SW
SL-16 R/B 2.0 04:52:06 10° NNW 04:57:49 83° WSW 05:03:27 10° SSE
Meteor 2-9 Rocket 4.1 04:55:05 10° N 05:00:47 82° W 05:06:36 10° S
CZ-4B R/B 3.0 04:56:46 10° N 05:01:15 85° WNW 05:01:53 66° SSW
NOSS 2-2 (D) 4.2 05:00:15 38° SSE 05:01:23 50° ESE 05:05:47 10° NE
Meteor 1-23 Rocket 4.1 04:59:59 46° SSW 05:01:40 72° W 05:07:23 10° N
Resurs 1-4 Rocket 3.8 04:58:13 10° NNW 05:00:21 19° NW 05:00:21 19° NW
NOSS 3-2 (C) 4.3 05:04:00 38° W 05:05:15 41° WSW 05:12:40 10° S
Cosmos 1898 Rocket 3.4 05:04:52 51° SW 05:06:10 72° WNW 05:11:28 10° NNE
Cosmos 2227 Rocket 3.3 05:07:33 27° NW 05:07:33 27° NW 05:11:52 10° N
Okean 2 3.8 05:13:04 46° NW 05:13:04 46° NW 05:16:27 10° N
Cosmos 2098 Rocket 3.6 05:08:52 10° N 05:13:03 67° E 05:18:23 10° SSE
Cosmos 858 Rocket 4.4 05:11:52 41° SW 05:13:38 68° WNW 05:18:55 10° NNE
Cosmos 1000 Rocket 4.4 05:08:43 11° SSW 05:14:51 75° W 05:21:12 10° N
Cosmos 1937 Rocket 3.4 05:12:42 30° SSW 05:15:23 83° WNW 05:20:42 10° NNE
Cosmos 2297 Rocket 3.0 05:15:34 31° WNW 05:15:47 31° WNW 05:20:47 10° N
NOSS 2-2 (C) 3.6 05:15:14 39° SSW 05:16:42 74° ESE 05:21:20 10° NE
DELTA 2 R/B (1) 3.5 05:15:21 43° W 05:17:15 88° S 05:22:51 10° E
NOSS 2-2 (E) 3.5 05:16:25 43° SSW 05:17:46 86° ESE 05:22:33 10° NE
Cosmos 2016 Rocket 4.0 05:13:43 10° N 05:20:06 90° WSW 05:26:21 10° S
CZ-2C R/B 4.0 05:22:06 42° W 05:22:06 42° W 05:26:18 10° NNW
Tiangong 1 1.7 05:22:33 44° N 05:22:38 44° N 05:25:34 10° E
Cosmos 2173 Rocket 3.9 05:19:07 10° NNW 05:25:06 59° W 05:31:07 10° S
EXPRESS MD2 3.5 05:24:17 35° NW 05:25:39 73° NE 05:31:40 10° ESE
Cosmos 2058 Rocket 3.2 05:24:09 10° NNW 05:28:19 45° W 05:32:28 10° SSW
Cosmos 967 Rocket 4.4 05:24:50 20° SW 05:29:33 80° WNW 05:36:00 10° NNE
Cosmos 1459 Rocket 4.1 05:23:34 10° NNW 05:29:44 54° W 05:35:49 10° SSW
SL-08 R/B 4.5 05:23:29 10° N 05:29:47 90° E 05:36:08 10° S
Cosmos 1346 Rocket 4.4 05:33:38 20° NW 05:33:38 20° NW 05:35:40 10° NNW
USA 116 4.2 05:27:32 10° SSE 05:32:34 85° ENE 05:37:07 10° N
FALCON 9 R/B 4.0 05:28:31 20° SW 05:33:32 55° SSE 05:57:10 10° E
Meteor 2-15 4.3 05:29:41 10° SSW 05:35:41 68° W 05:41:44 10° N
Okean-O 2.5 05:34:03 10° N 05:38:30 79° WNW 05:42:55 10° SSW
Cosmos 2123 Rocket 3.9 05:32:46 10° S 05:38:57 87° W 05:45:10 10° N
Cosmos 1603 3.7 05:39:48 10° NNW 05:45:34 89° WSW 05:51:14 10° SSE
Cosmos 2263 Rocket 3.9 05:43:47 10° SSE 05:48:42 34° ESE 05:53:39 10° NE
Cosmos 1626 Rocket 3.6 05:48:33 10° SSW 05:52:49 53° W 05:57:05 10° N
ADEOS II 2.2 05:49:18 10° N 05:54:26 55° WNW 05:59:32 10° SSW
Cosmos 1864 Rocket 4.5 05:49:33 10° NNW 05:55:54 72° W 06:02:12 10° S
Genesis I 3.5 05:54:19 19° WSW 05:56:55 48° NW 06:00:48 10° NNE
MOS 1 Rocket 3.4 05:52:19 10° N 05:57:14 80° WNW 06:02:25 10° SSW
BREEZE-M DEB (TANK) 3.3 05:49:58 10° WNW 06:02:06 88° SW 06:05:36 10° SE
Okean O Rocket 3.4 06:03:28 10° NW 06:05:28 13° WNW 06:05:58 13° WNW
Lacrosse 5 4.0 06:03:57 10° NW 06:06:39 14° NNW 06:09:21 10° NNE
Meteor 1-31 Rocket 2.8 06:04:00 10° N 06:07:52 61° WNW 06:11:44 10° SSW
COBE Rocket 3.8 06:04:18 10° N 06:08:58 59° WNW 06:13:32 10° SSW
Cosmos 1515 4.3 06:05:33 10° SW 06:09:03 34° WNW 06:12:35 10° N
Cosmos 1953 Rocket 4.5 06:07:50 10° S 06:12:10 54° E 06:16:34 10° NNE
USA 129 2.1 06:12:01 10° SSW 06:13:41 28° W 06:15:13 10° NW
Cosmos 1602 Rocket 4.4 06:13:36 10° SW 06:17:27 29° WNW 06:21:18 10° NNW
Cosmos 1340 2.7 06:14:19 10° SSW 06:18:02 55° W 06:21:47 10° N
Cosmos 1048 Rocket 4.1 06:17:19 10° NNW 06:22:29 82° ENE 06:27:35 10° SSE
Ariane Rocket 3.2 06:18:05 10° NNE 06:23:13 79° ESE 06:28:19 10° S
CZ-4B R/B 4.2 06:21:28 10° N 06:25:05 38° WNW 06:28:32 10° SW
Cosmos 1758 Rocket 4.0 06:21:03 10° S 06:25:19 65° E 06:29:37 10° NNE
OAO 2 Rocket 3.9 06:20:48 10° WSW 06:25:56 53° S 06:31:07 10° ESE
SKYMED 2 3.6 06:21:59 10° SSE 06:26:19 84° W 06:30:41 10° NNW
Cosmos 2233 Rocket 4.0 06:20:22 10° NNW 06:26:34 65° W 06:32:40 10° S
Cosmos 1269 Rocket 4.0 06:21:18 10° NNW 06:26:37 79° WSW 06:31:52 10° SSE
ADEOS Rocket 4.2 06:26:18 10° N 06:31:48 25° WNW 06:36:52 10° WSW
Cosmos 2084 Rocket 3.2 06:29:23 10° NW 06:33:17 70° WSW 06:37:22 10° SSE
DNEPR-1 R/B 4.3 06:29:57 10° NNW 06:34:48 60° NE 06:39:00 10° SE
Radarsat Rocket 4.1 06:28:24 10° NNE 06:35:00 71° WNW 06:40:56 10° SSW
